Regional Weather Roundup
Issued by NWS

Home | Current Version | Previous Version | Graphics & Text | Print | Product List | Glossary On
Versions: 1 2 3 4 5 6 7 8 9 10 11 12 13 14 15 16 17 18 19 20 21 22 23 24 25 26 27 28 29 30 31 32 33 34 35 36 37 38 39 40 41 42 43 44 45 46 47 48 49 50
000
ASUS45 KPSR 310010
RWRAZ

ARIZONA REGIONAL HOURLY WEATHER ROUNDUP
NATIONAL WEATHER SERVICE PHOENIX AZ
500 PM MST WED JUL 30 2014

NOTE: FAIR INDICATES FEW OR NO CLOUDS BELOW 12,000 FEET WITH NO
SIGNIFICANT WEATHER AND/OR OBSTRUCTIONS TO VISIBILITY.

AZZ001>003-036-310100-
NORTHWEST ARIZONA

CITY           SKY/WX    TMP DP  RH WIND       PRES   REMARKS
BULLHEAD CITY  SUNNY    111  48  12 NW9       29.75S HX 107
KINGMAN        SUNNY     98  49  18 NW6       29.99F
6HR MIN TEMP:  92; 6HR MAX TEMP: 100;

$$

AZZ004>008-015-016-018-310100-
NORTH CENTRAL ARIZONA

CITY           SKY/WX    TMP DP  RH WIND       PRES   REMARKS
GRAND CANYON   MOSUNNY   83  46  27 N9G21     30.25F
6HR MIN TEMP:  77; 6HR MAX TEMP:  87;

WILLIAMS       MOSUNNY   82  46  28 SW7       30.32F
PRESCOTT       MOSUNNY   90  43  19 VRB6G17   30.13F
6HR MIN TEMP:  86; 6HR MAX TEMP:  92;

FLAGSTAFF      PTSUNNY   82  40  22 W8        30.29F
6HR MIN TEMP:  76; 6HR MAX TEMP:  84;

PAYSON         MOSUNNY   91  45  19 SW8G18    30.14F
PAGE           MOSUNNY   96  47  18 N8        30.02F
6HR MIN TEMP:  87; 6HR MAX TEMP:  97;

$$

AZZ009>014-017-310100-
NORTHEAST ARIZONA

CITY           SKY/WX    TMP DP  RH WIND       PRES   REMARKS
WINSLOW        MOSUNNY   96  42  15 SW14G23   30.07F
6HR MIN TEMP:  87; 6HR MAX TEMP:  98;

SAINT JOHNS    MOSUNNY   89  45  21 W12       30.14F
6HR MIN TEMP:  82; 6HR MAX TEMP:  93;

WINDOW ROCK    MOSUNNY   88  41  19 NW9       30.23F
6HR MIN TEMP:  80; 6HR MAX TEMP:  90; 6HR PCP: TRACE;

SHOW LOW       PTSUNNY   84  41  21 SW7       30.24F
$$

AZZ023-310100-
GREATER PHOENIX AREA

CITY           SKY/WX    TMP DP  RH WIND       PRES   REMARKS
PHOENIX        MOSUNNY  109  47  12 W9        29.77F HX 105
6HR MIN TEMP: 102; 6HR MAX TEMP: 111;

BUCKEYE          N/A    109  48  13 NW6       29.77F HX 106
GLENDALE       MOSUNNY  109  52  15 S10G17    29.78F HX 107
LUKE AFB       NOT AVBL
6HR MIN TEMP: 102; 6HR MAX TEMP: 110;

DEER VALLEY    SUNNY    107  49  14 SW9G16    29.79F HX 104
6HR MIN TEMP:  99; 6HR MAX TEMP: 107;

SCOTTSDALE     SUNNY    107  50  15 VRB5      29.82F HX 104
6HR MIN TEMP: 100; 6HR MAX TEMP: 109;

MESA-FALCON    MOSUNNY  109  50  14 W9        29.80  HX 106
MESA-GATEWAY   PTSUNNY  108  52  15 NW12      29.83S HX 105
CHANDLER       MOSUNNY  108  50  14 W8        29.79F HX 104
$$

AZZ027-028-310100-
SOUTHWEST MARICOPA COUNTY AND PINAL COUNTY

CITY           SKY/WX    TMP DP  RH WIND       PRES   REMARKS
CASA GRANDE    SUNNY    108  52  15 W3G16     29.83S HX 105
6HR MIN TEMP: 100; 6HR MAX TEMP: 108;

GILA BEND      MOCLDY   111  46  11 NW10G16   29.78F HX 107
$$

AZZ503-504-507>509-310100-
SOUTHEAST ARIZONA

CITY           SKY/WX    TMP DP  RH WIND       PRES   REMARKS
TUCSON         PTSUNNY  103  49  16 NW9       29.95S
6HR MIN TEMP:  96; 6HR MAX TEMP: 105;

DAVIS-MONTHAN  CLOUDY   103  51  17 NW10      29.93S HX 100
6HR MIN TEMP:  94; 6HR MAX TEMP: 103;

RYAN FIELD       N/A    102  52  18 W9        29.93S HX 100
NOGALES        LGT RAIN  73  62  68 SE5       30.15R
6HR MIN TEMP:  71; 6HR MAX TEMP:  97; 6HR PCP:  0.04;

SIERRA VISTA   PTSUNNY   86  52  30 SW14      30.14F
DOUGLAS        CLOUDY    92  57  30 W8        30.07S
6HR MIN TEMP:  85; 6HR MAX TEMP:  94;

SAFFORD        SUNNY    101  45  15 W15G22    29.92S
6HR MIN TEMP:  94; 6HR MAX TEMP: 103;

$$

AZZ020-021-025-026-031-310100-
SOUTHWEST ARIZONA

CITY           SKY/WX    TMP DP  RH WIND       PRES   REMARKS
YUMA           MOSUNNY  113  47  11 SW9       29.73F HX 108
6HR MIN TEMP: 107; 6HR MAX TEMP: 114;

$$

CAZ031-033-041-043-047-048-061-310100-
SOUTHERN CALIFORNIA

CITY           SKY/WX    TMP DP  RH WIND       PRES   REMARKS
DOWNTOWN L.A.  MOSUNNY   83  59  44 SW3       29.89F
6HR MIN TEMP:  82; 6HR MAX TEMP:  90;

L.A. AIRPORT   PTSUNNY   74  60  61 W12       29.91F
6HR MIN TEMP:  74; 6HR MAX TEMP:  82;

SAN DIEGO      MOSUNNY   79  63  57 W9        29.92F
6HR MIN TEMP:  77; 6HR MAX TEMP:  81;

BURBANK        MOSUNNY   87  53  31 S8        29.90F
6HR MIN TEMP:  84; 6HR MAX TEMP:  93;

ONTARIO        PTSUNNY   96  55  25 W12G21    29.90F
6HR MIN TEMP:  87; 6HR MAX TEMP:  98;

RIVERSIDE      SUNNY     95  54  25 W14       29.89F
6HR MIN TEMP:  88; 6HR MAX TEMP:  98;

PALM SPRINGS   SUNNY    113  45  10 NW15G29   29.75F HX 108
6HR MIN TEMP: 105; 6HR MAX TEMP: 115;

EL CENTRO NAS  MOSUNNY  113  46  10 VRB3      29.70F HX 108
6HR MIN TEMP: 106; 6HR MAX TEMP: 114;

IMPERIAL       PTSUNNY  113  49  12 VRB3      29.69F HX 109
6HR MIN TEMP: 105; 6HR MAX TEMP: 115;

BLYTHE           N/A    N/A N/A N/A MISG      29.72F
NEEDLES        SUNNY    112  51  13 E7G18     29.75F HX 109
6HR MIN TEMP: 104; 6HR MAX TEMP: 113;

$$

NVZ020-UTZ003-310100-
SOUTHERN NEVADA-UTAH

CITY           SKY/WX    TMP DP  RH WIND       PRES   REMARKS
LAS VEGAS      MOSUNNY  103  47  15 VRB3      29.85F
6HR MIN TEMP:  96; 6HR MAX TEMP: 106;

SALT LAKE CITY PTSUNNY   81  55  40 SE9       30.13F
6HR MIN TEMP:  69; 6HR MAX TEMP:  82;

$$

NMZ009-TXZ055-310100-
NEW MEXICO-WEST TEXAS

CITY           SKY/WX    TMP DP  RH WIND       PRES   REMARKS
ALBUQUERQUE    PTSUNNY   88  49  25 CALM      30.11F
6HR MIN TEMP:  79; 6HR MAX TEMP:  90;

EL PASO        MOSUNNY   98  51  20 NE8       29.98S
6HR MIN TEMP:  91; 6HR MAX TEMP: 101;

$$


........................KEY........................
SKY/WX - SKY CONDITION/WEATHER
TMP    - TEMPERATURE IN FAHRENHEIT
DP     - DEW POINT IN FAHRENHEIT
RH     - RELATIVE HUMIDITY IN PERCENT
WIND   - DIRECTION AND SPEED IN MILES PER HOUR (MPH)
VRB    - VARIABLE WIND DIRECTION
PRES   - MEAN SEA LEVEL PRESSURE IN INCHES OF MERCURY
         F - FALLING PRESSURE   R - RISING PRESSURE
         S - STEADY PRESSURE
VSB    - VISIBILITY IN MILES
HX     - HEAT INDEX IN FAHRENHEIT
WCI    - WIND CHILL INDEX IN FAHRENHEIT
TC     - TEMPERATURE IN CELSIUS WHICH IS ALSO KNOWN AS
         TEMPERATURE IN CENTIGRADE
AFB    - AIR FORCE BASE
         LUKE AFB IS LUKE AIR FORCE BASE
         DAVIS-MONTHAN IS DAVIS-MONTHAN AIR FORCE BASE
NAS    - NAVAL AIR STATION
         EL CENTRO NAS IS EL CENTRO NAVAL AIR STATION
N/A    - NOT AVAILABLE


USA.gov is the U.S. government's official web portal to all federal, state and local government web resources and services.